EW1895 Weather Reports


Display with metric or nautical units.
time (UTC)temp
F
wind
direction
speed
MPH
gust
MPH
rain 1hr
in
rain 24hr
in
rain mn
in
humidity
%
barometer
mb
20260904210023 81 337 9.0 20.0 0.00 0.00 0.00 75 1012.9
20260904204508 97 286 2.0 9.0 0.00 0.00 0.00 58 1012.2
20260904201507 99 241 0.0 1.0 0.00 0.00 0.00 50 1011.1
20260904200005 99 123 0.0 1.0 0.00 0.00 0.00 50 1011.3
20260904194502 100 252 0.0 0.0 0.00 0.00 0.00 50 1011.9
20260904191556 101 202 0.0 0.0 0.00 0.00 0.00 45 1012.3
20260904190055 100 202 0.0 0.0 0.00 0.00 0.00 48 1012.3
20260904184549 100 281 0.0 0.0 0.00 0.00 0.00 49 1012.6
20260904181549 99 340 0.0 1.0 0.00 0.00 0.00 50 1013.2
20260904180040 98 322 0.0 0.0 0.00 0.00 0.00 52 1013.5
20260904174542 97 332 0.0 1.0 0.00 0.00 0.00 53 1013.6
20260904171632 97 161 0.0 1.0 0.00 0.00 0.00 51 1013.9
20260904170031 98 232 0.0 0.0 0.00 0.00 0.00 52 1013.8
20260904164528 98 232 0.0 1.0 0.00 0.00 0.00 53 1013.9
20260904161532 95 246 0.0 1.0 0.00 0.00 0.00 56 1014.1
20260904160020 96 159 0.0 2.0 0.00 0.00 0.00 55 1014.3
20260904154516 96 324 0.0 3.0 0.00 0.00 0.00 57 1014.5
20260904151510 94 305 0.0 0.0 0.00 0.00 0.00 59 1014.4
20260904150016 93 305 0.0 0.0 0.00 0.00 0.00 62 1014.5
20260904144501 92 305 0.0 0.0 0.00 0.00 0.00 65 1014.4
20260904141558 88 305 0.0 0.0 0.00 0.00 0.00 72 1014.3
20260904140053 86 305 0.0 0.0 0.00 0.00 0.00 75 1014.2
20260904134549 84 305 0.0 0.0 0.00 0.00 0.00 80 1014.4
20260904131554 78 305 0.0 0.0 0.00 0.00 0.00 89 1014.3
20260904130040 77 305 0.0 0.0 0.00 0.00 0.00 91 1014.3
20260904124537 76 305 0.0 0.0 0.00 0.00 0.00 93 1014.2
20260904121537 74 305 0.0 0.0 0.00 0.00 0.00 93 1014.3
20260904120045 74 305 0.0 0.0 0.00 0.00 0.00 94 1014.2
20260904114536 73 305 0.0 0.0 0.00 0.00 0.00 94 1014.1
20260904111541 73 305 0.0 0.0 0.00 0.00 0.00 94 1014.0
20260904110034 72 305 0.0 0.0 0.00 0.00 0.00 94 1014.0
20260904104534 72 305 0.0 0.0 0.00 0.00 0.00 93 1013.9
20260904101531 72 305 0.0 0.0 0.00 0.00 0.00 92 1013.9
20260904100031 72 305 0.0 0.0 0.00 0.00 0.00 92 1014.0
20260904094530 72 305 0.0 0.0 0.00 0.00 0.00 92 1014.0
20260904091528 73 305 0.0 0.0 0.00 0.00 0.00 91 1014.2
20260904090026 73 305 0.0 0.0 0.00 0.00 0.00 90 1014.3
20260904084525 74 305 0.0 0.0 0.00 0.00 0.00 90 1014.2
20260904081520 74 305 0.0 0.0 0.00 0.00 0.00 88 1014.0
20260904080018 75 305 0.0 0.0 0.00 0.00 0.00 88 1013.9
20260904074532 75 305 0.0 0.0 0.00 0.00 0.00 88 1013.7
20260904071514 76 305 0.0 0.0 0.00 0.00 0.00 84 1013.5
20260904070012 77 305 0.0 0.0 0.00 0.00 0.00 84 1013.4
20260904064515 77 305 0.0 0.0 0.00 0.00 0.00 85 1013.5
20260904061506 78 305 0.0 0.0 0.00 0.00 0.00 83 1013.5
20260904060006 79 305 0.0 1.0 0.00 0.00 0.00 81 1014.1
20260904054506 80 327 0.0 5.0 0.00 0.00 0.00 85 1014.8
20260904051502 79 5 0.0 0.0 0.00 0.00 0.00 89 1014.0
20260904050002 79 5 0.0 0.0 0.00 0.00 0.00 89 1014.1
20260904044502 79 5 0.0 0.0 0.00 0.00 0.00 88 1014.2
20260904041501 79 5 0.0 0.0 0.00 0.00 0.00 89 1014.4
20260904040110 79 5 0.0 0.0 0.00 0.00 0.00 90 1014.2
20260904034610 79 5 0.0 0.0 0.00 0.00 0.00 90 1014.2
20260904033200 79 5 0.0 0.0 0.00 0.00 0.00 91 1014.3
20260904031600 79 5 0.0 0.0 0.00 0.00 0.00 91 1014.3
20260904030059 80 5 0.0 0.0 0.00 0.00 0.00 91 1014.4
20260904024600 80 5 0.0 0.0 0.00 0.00 0.00 91 1014.3
20260904023159 80 5 0.0 0.0 0.00 0.00 0.00 91 1014.4
20260904021609 80 5 0.0 0.0 0.00 0.00 0.00 91 1014.2
20260904020059 80 5 0.0 0.0 0.00 0.00 0.00 91 1014.1
20260904014637 80 5 0.0 0.0 0.00 0.00 0.00 90 1014.3
20260904013159 81 5 0.0 0.0 0.00 0.00 0.00 89 1014.6
20260904011614 81 5 0.0 0.0 0.00 0.00 0.00 89 1014.6
20260904004559 82 5 0.0 0.0 0.00 0.00 0.00 89 1015.0
20260904003156 82 5 0.0 0.0 0.00 0.00 0.00 88 1015.0
20260904001554 83 5 0.0 0.0 0.00 0.00 0.00 87 1014.7